Litchfield, IL

3:42 PM CDT on April 25, 2017 (GMT -0500)
Litchfield

Weather History for K3LF - November, 2012

Change the Weather History Date:

Saturday, November 24, 2012

  Actual Average (KALN) Record (KALN)
Temperature  
Mean Temperature 30 °F -  
Max Temperature 36 °F 50 °F 66 °F (2006)
Min Temperature 23 °F 34 °F 14 °F (2013)
Degree Days  
Heating Degree Days 36    
Moisture  
Dew Point 21 °F    
Average Humidity 73    
Maximum Humidity 82    
Minimum Humidity 57    
Precipitation  
Precipitation 0.00 in - - ()
Sea Level Pressure  
Sea Level Pressure 30.22 in    
Wind  
Wind Speed 8 mph (WSW)    
Max Wind Speed 13 mph    
Max Gust Speed -    
Visibility 10 miles    
Events      
Averages and records for this station are not official NWS values.
T = Trace of Precipitation, MM = Missing Value Source: NWS Daily Summary

Daily Weather History Graph

Daily Weather History Graph

Search for Another Location

Airport or City:

Trip Planner

Search our weather history database for the weather conditions in past years. The results will help you decide how hot, cold, wet, or windy it might be!

Date:

Astronomy

Nov. 24, 2012 Rise Set
Actual Time 6:52 AM CST 4:38 PM CST
Civil Twilight 6:23 AM CST 5:07 PM CST
Nautical Twilight 5:50 AM CST 5:40 PM CST
Astronomical Twilight 5:18 AM CST 6:12 PM CST
Moon 2:22 PM CST (11/24) 3:10 AM CST (11/24)
Length of Visible Light 10h 44m
Length of Day
9h 46m
Waxing Gibbous, 87% of the Moon is Illuminated
Nov 24
Waxing Gibbous
Nov 28
Full
Dec 6
Last Quarter
Dec 13
New
Dec 19
First Quarter

Hourly Weather History & Observations

Time (CST) Temp. Windchill Dew Point Humidity Pressure Visibility Wind Dir Wind Speed Gust Speed Precip Events Conditions
12:15 AM 28.2 °F 19.5 °F 19.9 °F 71% 30.31 in 10.0 mi WNW 9.2 mph - N/A   Clear
12:35 AM 27.9 °F 18.4 °F 19.6 °F 71% 30.31 in 10.0 mi NW 10.4 mph - N/A   Clear
12:55 AM 27.5 °F 19.3 °F 19.8 °F 73% 30.31 in 10.0 mi NW 8.1 mph - N/A   Clear
1:35 AM 26.6 °F 18.2 °F 19.4 °F 74% 30.30 in 10.0 mi NW 8.1 mph - N/A   Clear
2:15 AM 26.2 °F 17.1 °F 19.6 °F 76% 30.30 in 10.0 mi NW 9.2 mph - N/A   Clear
2:55 AM 25.7 °F 18.0 °F 20.1 °F 79% 30.31 in 10.0 mi WNW 6.9 mph - N/A   Clear
3:15 AM 25.5 °F 17.8 °F 19.2 °F 77% 30.30 in 10.0 mi NW 6.9 mph - N/A   Clear
3:35 AM 25.2 °F 17.3 °F 19.2 °F 78% 30.30 in 10.0 mi NW 6.9 mph - N/A   Clear
3:55 AM 24.6 °F 17.7 °F 19.6 °F 81% 30.30 in 10.0 mi WNW 5.8 mph - N/A   Clear
4:15 AM 24.8 °F 16.9 °F 19.2 °F 79% 30.30 in 10.0 mi WNW 6.9 mph - N/A   Clear
4:35 AM 24.6 °F 17.7 °F 19.0 °F 79% 30.30 in 10.0 mi WNW 5.8 mph - N/A   Clear
4:55 AM 24.3 °F 16.3 °F 19.4 °F 82% 30.30 in 10.0 mi West 6.9 mph - N/A   Clear
5:15 AM 24.3 °F 16.3 °F 19.2 °F 81% 30.29 in 10.0 mi WNW 6.9 mph - N/A   Clear
5:35 AM 23.9 °F 15.8 °F 18.9 °F 81% 30.30 in 10.0 mi WNW 6.9 mph - N/A   Clear
5:55 AM 23.9 °F 15.8 °F 18.5 °F 80% 30.30 in 10.0 mi NW 6.9 mph - N/A   Clear
6:15 AM 23.4 °F 18.9 °F 18.5 °F 82% 30.30 in 10.0 mi WNW 3.5 mph - N/A   Clear
6:35 AM 23.5 °F 14.5 °F 18.9 °F 82% 30.31 in 10.0 mi WNW 8.1 mph - N/A   Clear
6:55 AM 23.4 °F 14.3 °F 18.5 °F 82% 30.31 in 10.0 mi WNW 8.1 mph - N/A   Clear
7:15 AM 23.5 °F 13.7 °F 18.5 °F 81% 30.32 in 10.0 mi WNW 9.2 mph - N/A   Clear
7:35 AM 24.1 °F 14.4 °F 18.5 °F 79% 30.32 in 10.0 mi WNW 9.2 mph - N/A   Clear
7:55 AM 24.6 °F 15.8 °F 18.5 °F 78% 30.32 in 10.0 mi WNW 8.1 mph - N/A   Clear
8:15 AM 25.2 °F 16.5 °F 18.3 °F 75% 30.32 in 10.0 mi NW 8.1 mph - N/A   Clear
8:35 AM 25.5 °F 16.2 °F 18.5 °F 75% 30.33 in 10.0 mi WNW 9.2 mph - N/A   Clear
8:55 AM 26.1 °F 16.8 °F 18.7 °F 74% 30.33 in 10.0 mi NW 9.2 mph - N/A   Clear
9:15 AM 26.4 °F 18.0 °F 18.9 °F 73% 30.33 in 10.0 mi NW 8.1 mph - N/A   Clear
9:35 AM 27.5 °F 20.2 °F 19.6 °F 72% 30.33 in 10.0 mi NW 6.9 mph - N/A   Clear
9:55 AM 28.4 °F 21.2 °F 19.9 °F 71% 30.33 in 10.0 mi NW 6.9 mph - N/A   Clear
10:15 AM 28.6 °F 21.5 °F 19.4 °F 69% 30.32 in 10.0 mi NW 6.9 mph - N/A   Clear
10:35 AM 28.9 °F 23.9 °F 19.6 °F 68% 30.32 in 10.0 mi NW 4.6 mph - N/A   Clear
10:55 AM 29.8 °F 26.3 °F 19.8 °F 66% 30.31 in 10.0 mi West 3.5 mph - N/A   Clear
11:15 AM 30.7 °F - 20.7 °F 66% 30.31 in 10.0 mi Calm Calm - N/A   Clear
11:35 AM 31.3 °F 27.9 °F 21.0 °F 66% 30.29 in 10.0 mi West 3.5 mph - N/A   Clear
11:55 AM 32.0 °F 27.5 °F 21.0 °F 64% 30.29 in 10.0 mi WNW 4.6 mph - N/A   Clear
12:15 PM 32.2 °F 26.7 °F 21.9 °F 66% 30.27 in 10.0 mi WSW 5.8 mph - N/A   Clear
12:35 PM 32.0 °F - 20.3 °F 62% 30.26 in 10.0 mi Calm Calm - N/A   Clear
12:55 PM 32.7 °F 28.3 °F 21.4 °F 63% 30.25 in 10.0 mi SSW 4.6 mph - N/A   Clear
1:15 PM 33.1 °F 26.9 °F 21.7 °F 63% 30.23 in 10.0 mi SSW 6.9 mph - N/A   Clear
1:35 PM 33.6 °F 30.6 °F 21.9 °F 62% 30.23 in 10.0 mi SW 3.5 mph - N/A   Clear
1:55 PM 34.0 °F 31.0 °F 22.1 °F 62% 30.22 in 10.0 mi SSW 3.5 mph - N/A   Clear
2:15 PM 34.9 °F 30.8 °F 22.3 °F 60% 30.21 in 10.0 mi SW 4.6 mph - N/A   Clear
2:35 PM 35.2 °F - 21.6 °F 58% 30.20 in 10.0 mi Calm Calm - N/A   Clear
2:55 PM 36.0 °F 32.1 °F 22.1 °F 57% 30.20 in 10.0 mi SW 4.6 mph - N/A   Clear
3:15 PM 35.8 °F 31.9 °F 22.8 °F 59% 30.20 in 10.0 mi SW 4.6 mph - N/A   Clear
3:35 PM 35.6 °F 30.7 °F 23.2 °F 61% 30.19 in 10.0 mi South 5.8 mph - N/A   Clear
3:55 PM 34.9 °F 29.0 °F 23.0 °F 62% 30.18 in 10.0 mi South 6.9 mph - N/A   Clear
4:15 PM 34.5 °F 27.3 °F 24.3 °F 66% 30.17 in 10.0 mi South 9.2 mph - N/A   Clear
4:55 PM 32.2 °F 26.7 °F 25.2 °F 75% 30.16 in 10.0 mi South 5.8 mph - N/A   Clear
5:15 PM 32.0 °F 25.6 °F 25.5 °F 77% 30.15 in 10.0 mi South 6.9 mph - N/A   Clear
5:35 PM 31.5 °F 24.9 °F 25.3 °F 78% 30.15 in 10.0 mi South 6.9 mph - N/A   Clear
5:55 PM 30.2 °F 24.3 °F 24.6 °F 80% 30.14 in 10.0 mi SSE 5.8 mph - N/A   Clear
6:15 PM 30.9 °F 24.3 °F 24.8 °F 78% 30.14 in 10.0 mi SSE 6.9 mph - N/A   Clear
6:35 PM 30.9 °F 23.5 °F 23.9 °F 75% 30.12 in 10.0 mi SSE 8.1 mph - N/A   Clear
6:55 PM 30.7 °F 23.3 °F 23.7 °F 75% 30.12 in 10.0 mi SSE 8.1 mph - N/A   Clear
7:15 PM 30.7 °F 22.6 °F 23.9 °F 76% 30.11 in 10.0 mi SSE 9.2 mph - N/A   Clear
7:35 PM 30.7 °F 22.0 °F 23.4 °F 74% 30.09 in 10.0 mi SSE 10.4 mph - N/A   Clear
7:55 PM 30.7 °F 22.6 °F 23.0 °F 73% 30.09 in 10.0 mi SSE 9.2 mph - N/A   Clear
8:15 PM 30.6 °F 22.4 °F 23.0 °F 74% 30.08 in 10.0 mi SSE 9.2 mph - N/A   Clear
8:35 PM 30.6 °F 21.8 °F 23.0 °F 74% 30.07 in 10.0 mi SSE 10.4 mph - N/A   Clear
8:55 PM 30.2 °F 20.8 °F 23.0 °F 75% 30.06 in 10.0 mi SSE 11.5 mph - N/A   Clear
9:15 PM 30.7 °F 22.6 °F 23.9 °F 76% 30.06 in 10.0 mi SSE 9.2 mph - N/A   Clear
9:35 PM 31.1 °F 21.9 °F 23.9 °F 75% 30.05 in 10.0 mi SSE 11.5 mph - N/A   Clear
9:55 PM 31.6 °F 22.1 °F 23.9 °F 73% 30.05 in 10.0 mi SSE 12.7 mph - N/A   Clear
10:15 PM 31.6 °F 22.6 °F 23.9 °F 73% 30.05 in 10.0 mi SSE 11.5 mph - N/A   Clear
10:35 PM 32.0 °F 23.0 °F 24.4 °F 74% 30.05 in 10.0 mi South 11.5 mph - N/A   Clear
10:55 PM 32.0 °F 23.0 °F 25.2 °F 76% 30.05 in 10.0 mi South 11.5 mph - N/A   Clear
11:15 PM 31.8 °F 23.3 °F 24.8 °F 75% 30.03 in 10.0 mi South 10.4 mph - N/A   Clear
11:35 PM 31.5 °F 22.3 °F 24.8 °F 76% 30.02 in 10.0 mi SSE 11.5 mph - N/A   Clear
11:55 PM 31.6 °F 22.6 °F 24.8 °F 76% 30.01 in 10.0 mi SSE 11.5 mph - N/A   Clear